Wind_Speed
11 11 11 12 13 13 14 15 16 18 19 19 20 21 21 22 23 24 24 23 21 19 17 16 16 15 15 15 15 16 17 18 18 18 18 18 18 19 20 21 21 22
11 10 10 10 10 11 12 13 15 17 18 19 20 21 22 23 23 22 22 20 18 16 15 14 14 14 14 15 15 16 17 18 17 17 17 18 18 19 20 21 22 22
9 9 9 10 10 11 11 13 14 16 17 19 20 21 21 21 20 19 17 16 14 13 13 13 13 13 14 15 15 16 17 17 17 17 17 18 19 19 20 21 22 22
9 9 10 11 11 12 12 13 15 16 17 17 18 18 17 17 16 15 14 13 12 12 12 12 13 14 14 15 15 16 16 16 16 17 17 18 19 20 21 21 22 22
9 9 10 10 11 12 13 14 15 15 15 15 14 14 13 13 13 12 12 12 11 11 12 12 13 14 15 15 15 15 15 16 16 17 18 19 20 20 20 21 21 21
10 9 9 10 11 12 13 14 15 14 13 13 12 12 12 11 11 11 11 11 11 11 12 13 14 15 15 15 15 14 15 16 17 18 18 19 20 20 20 20 20 21
11 10 10 11 12 13 14 14 15 14 13 12 13 12 11 11 10 10 10 11 11 12 13 14 14 14 14 14 14 13 14 15 17 18 19 19 19 19 19 19 20 20
13 13 13 13 13 14 14 15 14 14 13 12 12 12 11 10 10 10 11 11 11 12 13 14 14 14 13 13 13 13 14 15 17 18 19 19 19 18 18 18 19 20
13 13 14 14 14 15 15 15 14 13 13 12 12 11 10 10 10 10 11 11 12 13 14 14 14 13 13 13 13 13 14 15 17 18 18 18 17 17 17 18 19 20
13 14 15 15 15 16 16 15 14 13 13 13 12 11 11 10 10 10 11 12 13 14 14 14 13 13 12 12 13 14 15 16 16 16 16 16 16 16 17 18 19 20
15 16 17 17 17 17 16 15 14 13 13 14 13 12 11 10 10 11 11 13 14 14 14 13 12 12 12 12 13 14 15 16 15 15 15 15 16 16 17 17 18 19
17 17 18 18 18 18 17 16 15 15 15 15 14 12 11 10 10 11 12 14 14 14 13 12 12 11 12 12 14 15 15 15 14 13 14 14 15 16 16 17 18 19
18 18 19 19 19 18 17 16 16 16 15 15 13 12 11 11 11 12 13 14 14 14 13 12 11 11 12 13 13 14 15 14 13 13 13 14 14 15 16 17 18 19
18 19 19 20 20 19 18 17 17 16 16 14 13 13 12 11 12 12 13 14 14 13 12 12 12 12 12 13 13 13 13 13 12 12 13 13 14 14 15 16 17 19
19 19 19 20 20 20 18 18 18 17 16 15 14 13 12 12 12 13 13 14 14 13 12 12 12 12 12 13 13 12 12 12 12 12 12 13 13 14 15 16 17 18
19 19 20 21 21 20 19 19 18 17 16 15 15 14 13 13 13 13 14 14 14 13 13 12 12 12 12 12 12 11 10 11 12 12 12 12 12 13 14 15 16 18
20 20 21 22 22 21 20 19 19 18 17 15 15 14 13 13 13 13 14 14 14 14 13 12 11 11 12 11 11 10 9 10 11 11 11 11 11 12 13 14 15 17
21 21 22 22 22 21 20 19 19 18 17 16 15 15 14 14 13 14 14 14 15 14 13 12 11 11 11 10 9 9 9 10 10 10 10 10 10 11 12 14 15 16
21 22 23 23 23 22 20 19 19 19 17 16 16 15 15 14 14 15 15 15 15 14 12 11 10 11 10 9 8 8 9 9 9 9 9 9 10 11 12 13 14 15
21 22 23 23 23 22 20 20 19 19 17 16 16 16 15 15 15 15 15 15 14 13 12 11 10 10 9 8 8 8 8 9 8 8 8 9 9 10 12 13 14 15
20 21 22 22 22 21 21 20 20 19 17 16 16 16 16 16 15 15 15 15 14 13 11 10 9 9 8 8 8 8 8 8 7 7 8 8 9 10 12 13 14 15
19 20 20 21 21 21 21 20 19 18 17 16 17 16 16 16 15 15 16 15 14 12 11 10 9 8 8 8 7 7 7 7 6 7 7 8 8 10 11 12 13 14
18 18 19 21 21 20 20 19 19 19 17 17 17 16 16 16 16 16 16 14 13 12 10 9 8 8 8 8 7 6 6 5 5 6 6 7 8 9 11 12 12 13
18 18 19 20 20 20 20 19 19 19 17 17 17 17 17 17 16 16 15 13 12 11 10 8 8 8 8 7 6 6 5 5 5 5 6 6 7 9 10 11 12 12
20 19 19 19 20 21 20 19 19 18 18 17 18 18 18 18 17 16 14 13 12 10 9 8 8 8 8 6 6 6 4 4 4 4 5 6 7 8 9 10 11 12
20 19 18 19 21 21 21 20 19 19 18 18 19 19 18 17 17 16 14 12 11 10 9 8 8 8 7 6 6 5 4 3 3 3 4 5 6 8 8 9 11 13
Wind_Direction
250 255 257 259 260 261 263 267 271 272 274 278 282 286 289 289 290 291 291 291 289 288 288 289 290 292 293 295 299 302 305 308 309 310 311 311 313 314 316 316 317 319
248 251 255 260 263 266 269 272 273 274 277 280 282 283 284 285 286 287 286 285 284 284 286 288 290 293 296 299 303 304 305 306 307 309 310 311 313 315 317 318 318 318
239 248 259 268 272 275 276 275 274 276 278 278 278 279 280 281 281 280 279 280 282 285 287 289 292 295 299 301 303 302 303 305 307 309 311 313 316 317 318 318 318 319
239 254 264 268 271 274 274 274 275 277 277 274 274 274 274 274 274 274 276 279 283 285 287 290 293 296 300 300 300 301 303 306 307 310 313 315 317 318 318 318 318 320
242 254 262 266 269 271 272 276 279 279 277 274 273 271 269 269 271 273 276 278 281 284 287 292 295 297 299 299 300 302 304 307 309 312 315 316 316 317 318 319 320 323
239 251 263 272 275 277 279 283 286 285 281 279 275 271 268 267 269 271 274 276 280 285 289 293 296 297 298 299 301 303 306 309 312 314 315 315 315 317 319 321 324 326
241 256 269 279 284 286 286 286 287 283 278 276 272 268 265 264 267 270 273 277 281 286 290 293 295 296 297 298 301 304 308 311 312 313 314 314 315 319 322 324 325 327
250 261 270 277 281 285 284 283 282 277 272 269 265 262 262 263 266 269 272 277 281 286 290 293 295 295 296 298 301 305 308 310 311 312 312 314 317 321 324 325 326 328
253 261 266 271 275 279 280 279 277 272 267 262 257 256 259 262 265 267 271 277 283 289 292 293 293 294 295 297 300 304 307 309 310 311 313 315 318 323 325 325 327 330
252 260 266 270 272 273 274 273 270 266 260 254 250 251 254 259 263 268 275 282 287 290 290 290 290 291 292 295 298 303 306 308 309 311 314 317 320 324 326 327 330 332
254 261 267 269 267 266 266 266 262 256 251 248 246 247 251 257 265 272 280 284 286 287 286 285 286 287 289 293 298 302 305 307 309 312 316 320 322 325 327 329 332 334
257 263 265 264 260 259 259 257 253 247 244 244 245 246 249 257 266 274 279 282 282 282 281 280 281 282 286 291 297 301 303 306 310 315 320 323 324 325 328 331 334 338
260 263 262 258 254 252 252 250 245 240 240 242 244 246 250 258 267 273 277 278 278 276 275 275 276 279 285 291 297 300 303 309 314 319 323 323 323 326 330 334 338 340
260 262 260 255 251 249 247 243 239 237 238 239 243 246 251 259 265 270 273 273 273 271 269 270 272 277 285 291 297 301 305 312 316 320 323 322 324 329 333 338 342 342
258 259 257 253 249 246 243 239 236 236 235 237 242 246 251 258 262 267 268 267 266 264 263 265 270 277 286 293 298 302 308 314 317 320 323 323 327 333 338 342 343 343
255 256 255 251 248 244 240 237 235 234 234 235 241 246 250 255 259 262 262 261 259 258 258 262 269 279 287 293 298 303 310 314 315 319 322 325 331 336 340 343 344 346
253 255 254 251 246 241 238 235 233 233 233 235 241 246 249 252 255 257 257 256 254 253 255 262 271 281 287 292 297 304 311 312 312 317 322 327 334 338 341 344 348 350
253 254 253 249 244 239 235 232 231 232 234 236 241 245 247 248 250 251 251 251 250 250 254 262 272 280 285 290 297 305 310 308 310 318 324 328 334 339 343 349 352 354
252 254 252 246 240 237 233 229 229 231 233 237 241 243 245 245 246 247 248 248 248 249 255 264 272 278 283 290 298 304 306 306 312 320 323 329 336 341 349 354 355 356
253 253 250 242 237 235 231 229 230 232 234 237 240 241 241 242 243 244 244 246 247 251 258 265 272 278 284 291 298 303 304 306 313 319 322 330 339 347 355 357 356 358
253 254 248 240 235 233 230 229 231 233 234 235 238 240 240 240 240 241 242 244 247 252 259 266 272 278 284 290 297 301 302 305 312 317 323 333 345 353 358 358 358 359
252 252 246 239 235 232 230 231 233 235 235 234 236 238 239 239 239 239 241 243 247 253 259 265 271 277 282 287 293 297 298 302 309 316 325 337 349 358 0 359 359 359
247 249 245 240 235 231 230 231 233 235 235 234 235 236 235 235 236 237 239 241 247 254 259 262 268 273 277 283 288 290 292 298 308 317 329 342 354 1 2 0 359 359
242 245 244 239 233 229 229 229 231 234 234 232 232 232 231 232 233 235 238 240 246 253 256 259 266 271 274 279 282 284 289 298 309 321 333 346 1 6 4 0 358 1
237 242 243 236 230 228 227 228 229 231 231 229 230 231 231 231 231 232 235 238 243 248 251 256 263 268 271 272 273 278 287 298 311 326 337 353 9 9 3 358 358 5
232 239 241 232 229 228 226 226 227 227 227 227 228 230 232 231 231 231 232 236 241 242 244 252 259 262 263 263 264 271 281 292 308 326 341 2 14 10 2 359 2 11
Height
3151 3152 3153 3153 3154 3154 3154 3154 3154 3154 3154 3154 3154 3154 3154 3154 3154 3154 3154 3154 3153 3153 3153 3152 3152 3151 3151 3150 3149 3148 3147 3146 3145 3145 3144 3143 3141 3140 3139 3138 3136 3135
3150 3151 3152 3152 3152 3153 3153 3153 3152 3152 3152 3152 3152 3153 3153 3153 3153 3153 3152 3152 3152 3151 3151 3151 3150 3150 3149 3148 3147 3146 3145 3145 3144 3143 3142 3141 3140 3139 3138 3136 3135 3133
3150 3150 3151 3151 3151 3151 3152 3151 3151 3151 3151 3151 3151 3151 3151 3151 3151 3151 3151 3151 3150 3150 3149 3149 3149 3148 3147 3147 3146 3145 3144 3143 3142 3142 3141 3140 3139 3137 3136 3135 3133 3132
3149 3149 3150 3150 3150 3150 3150 3150 3150 3150 3150 3150 3150 3150 3150 3150 3150 3150 3149 3149 3148 3148 3148 3148 3147 3147 3146 3145 3145 3144 3143 3142 3141 3140 3139 3138 3137 3136 3135 3133 3132 3131
3148 3148 3149 3149 3149 3149 3149 3149 3149 3149 3148 3148 3148 3148 3148 3148 3148 3148 3148 3147 3147 3147 3147 3146 3146 3145 3145 3144 3143 3142 3142 3141 3140 3139 3138 3137 3136 3135 3133 3132 3130 3129
3147 3147 3148 3148 3148 3148 3148 3147 3147 3147 3147 3147 3147 3147 3147 3147 3147 3147 3146 3146 3146 3146 3145 3145 3144 3144 3143 3143 3142 3141 3140 3139 3138 3137 3136 3136 3135 3133 3132 3131 3129 3127
3145 3146 3146 3146 3146 3146 3146 3146 3146 3145 3145 3145 3145 3145 3145 3145 3145 3145 3145 3145 3145 3144 3144 3144 3143 3143 3142 3141 3141 3140 3139 3138 3137 3136 3135 3134 3133 3132 3131 3129 3128 3126
3144 3144 3144 3145 3145 3145 3145 3145 3145 3144 3144 3144 3144 3144 3144 3144 3144 3144 3144 3144 3144 3143 3143 3143 3142 3142 3141 3140 3140 3139 3138 3137 3137 3136 3135 3133 3132 3131 3130 3128 3127 3125
3142 3142 3143 3143 3143 3144 3143 3143 3143 3143 3143 3143 3143 3143 3143 3143 3143 3143 3143 3143 3143 3142 3142 3142 3141 3140 3140 3139 3139 3138 3138 3137 3136 3135 3134 3132 3131 3130 3128 3127 3126 3124
3140 3141 3141 3141 3142 3142 3142 3142 3142 3142 3142 3141 3141 3141 3142 3142 3142 3142 3142 3142 3141 3141 3141 3140 3140 3139 3139 3138 3138 3137 3137 3136 3135 3134 3133 3131 3130 3129 3127 3126 3125 3123
3139 3139 3139 3139 3140 3140 3140 3140 3140 3140 3140 3140 3140 3140 3140 3141 3141 3141 3141 3141 3140 3140 3140 3139 3139 3138 3138 3138 3137 3136 3136 3135 3134 3133 3132 3130 3129 3127 3126 3125 3124 3122
3137 3137 3137 3138 3138 3138 3139 3139 3138 3138 3138 3139 3139 3139 3139 3139 3139 3139 3139 3139 3139 3139 3138 3138 3138 3137 3137 3137 3136 3136 3135 3134 3133 3132 3131 3129 3128 3126 3125 3124 3122 3121
3134 3135 3135 3135 3136 3136 3137 3137 3136 3136 3136 3137 3138 3138 3138 3138 3138 3138 3138 3138 3138 3137 3137 3137 3137 3137 3136 3136 3136 3135 3134 3133 3132 3131 3130 3128 3127 3126 3124 3123 3121 3120
3132 3132 3132 3133 3134 3134 3134 3135 3135 3135 3135 3135 3136 3136 3136 3136 3136 3136 3136 3136 3136 3136 3136 3136 3136 3136 3136 3135 3135 3134 3132 3131 3130 3130 3129 3128 3126 3125 3123 3122 3120 3119
3130 3130 3130 3131 3131 3132 3132 3133 3133 3133 3133 3134 3134 3134 3134 3134 3134 3135 3135 3135 3135 3135 3135 3135 3135 3135 3135 3134 3134 3132 3131 3130 3129 3129 3128 3127 3125 3124 3122 3121 3119 3118
3127 3127 3128 3129 3129 3130 3130 3131 3131 3131 3131 3132 3132 3132 3132 3132 3133 3133 3134 3134 3134 3134 3134 3134 3134 3134 3133 3133 3132 3131 3130 3129 3128 3128 3127 3125 3124 3123 3121 3120 3118 3117
3124 3125 3125 3126 3127 3128 3128 3128 3129 3129 3129 3129 3130 3130 3131 3131 3131 3132 3132 3133 3133 3133 3133 3133 3133 3133 3132 3131 3131 3130 3129 3128 3127 3127 3126 3124 3123 3122 3120 3119 3117 3115
3122 3122 3123 3123 3124 3125 3126 3126 3126 3127 3127 3127 3128 3129 3129 3129 3130 3130 3131 3131 3132 3132 3132 3132 3131 3131 3131 3130 3129 3129 3128 3127 3126 3126 3125 3123 3122 3121 3119 3118 3116 3115
3119 3119 3120 3121 3122 3123 3124 3124 3124 3125 3125 3126 3126 3127 3128 3128 3128 3129 3129 3130 3130 3131 3131 3130 3130 3130 3129 3129 3128 3128 3127 3126 3125 3124 3123 3122 3121 3120 3118 3117 3115 3114
3117 3117 3117 3118 3120 3121 3121 3122 3122 3123 3123 3124 3125 3126 3126 3126 3127 3127 3128 3129 3129 3129 3129 3129 3129 3128 3128 3128 3127 3127 3126 3125 3124 3123 3122 3121 3120 3118 3117 3115 3114 3113
3114 3114 3115 3116 3118 3119 3119 3120 3120 3121 3122 3123 3123 3124 3124 3125 3125 3126 3127 3128 3128 3128 3128 3128 3128 3127 3127 3127 3126 3126 3125 3124 3123 3123 3121 3120 3118 3117 3115 3114 3113 3112
3112 3112 3113 3114 3116 3117 3117 3118 3118 3119 3120 3121 3121 3122 3123 3123 3124 3125 3126 3126 3127 3127 3127 3126 3126 3126 3126 3125 3125 3124 3124 3123 3123 3122 3120 3119 3117 3116 3114 3113 3113 3112
3110 3110 3111 3113 3114 3115 3115 3116 3116 3117 3118 3119 3120 3120 3121 3122 3122 3123 3124 3125 3125 3126 3125 3125 3125 3125 3125 3124 3124 3123 3123 3122 3121 3120 3119 3117 3116 3115 3114 3113 3112 3111
3107 3108 3109 3110 3112 3113 3113 3114 3114 3115 3116 3117 3118 3118 3119 3120 3121 3122 3123 3124 3124 3124 3124 3124 3124 3124 3123 3123 3123 3122 3122 3121 3120 3119 3118 3116 3115 3114 3113 3113 3112 3111
3105 3106 3107 3108 3109 3110 3111 3112 3112 3113 3114 3115 3116 3116 3117 3118 3119 3121 3121 3122 3122 3122 3122 3122 3122 3122 3122 3122 3121 3121 3120 3120 3119 3118 3117 3115 3114 3113 3113 3112 3111 3110
3103 3104 3104 3106 3107 3107 3108 3109 3110 3110 3111 3113 3114 3114 3116 3117 3118 3119 3120 3120 3121 3121 3121 3121 3121 3121 3121 3120 3120 3120 3119 3119 3118 3117 3116 3115 3114 3113 3113 3112 3111 3108